Current Version              Previous Version:    01  02  03  04  05  06  07  08  09  10  11  12  13  14  15  16  17  18  19  20  21  22  23  24  25  26  27  28  29  30  
   31  32  33  34  35  36  37  38  39  40  41  42  43  44  45  46  47  48  49  50  51  52  53  54  55  56  57  58  59  60  

[Printable]
136
ASUS44 KLUB 231201
RWRTX
WEST TEXAS WEATHER ROUNDUP
NATIONAL WEATHER SERVICE LUBBOCK TX
700 AM CDT THU OCT 23 2014

NOTE: "FAIR" INDICATES FEW OR NO CLOUDS BELOW 12,000 FEET WITH NO
SIGNIFICANT WEATHER AND/OR OBSTRUCTIONS TO VISIBILITY.

TXZ004-006>008-010-012-014-016-OKZ002-231300-
TEXAS PANHANDLE/OKLAHOMA PANHANDLE

CITY           SKY/WX    TMP DP  RH WIND       PRES   REMARKS
AMARILLO       CLOUDY    59  57  93 SW8       30.11R
CANADIAN       PTCLDY    60  59  96 S7        30.07S
DALHART        FOG       52  51  97 SW3       30.12R VSB 1/4
DUMAS            N/A     53  51  95 SW6       30.10S FOG
GUYMON         FOG       52  51  97 SW3       30.07S VSB 1/4
HEREFORD       CLOUDY    62  59  90 S8        30.13R
PAMPA          CLEAR     54  53  97 SW8       30.11R FOG
PERRYTON         N/A     55  53  95 S7        30.08R VSB 1
$$

TXZ026-029-035-045-048-231300-
SOUTHERN PANHANDLE/SOUTH PLAINS/ROLLING PLAINS

CITY           SKY/WX    TMP DP  RH WIND       PRES   REMARKS
CHILDRESS      FOG       56  55  97 S3        30.10S VSB 1/4
SEMINOLE       FOG       56  55  99 CALM      30.15R VSB 1/4
LUBBOCK        CLEAR     51  49  92 SE3       30.12R FOG
PLAINVIEW      FOG       55  54  97 SW3       30.12R VSB 1/4
SNYDER         MOCLDY    56  55  94 S5        30.13S
$$

TXZ052-054-060>062-072-078-127-140-154-169-231300-
PERMIAN BASIN/CONCHO VALLEY/BIG COUNTRY/EDWARDS PLATEAU

CITY           SKY/WX    TMP DP  RH WIND       PRES   REMARKS
ABILENE        MOCLDY    61  56  83 S6        30.12F
BIG SPRING     CLOUDY    61  59  92 SE8       30.14F
JUNCTION       CLEAR     56  55  97 W3        30.13R FOG
MIDLAND        FOG       58  58 100 S9        30.12R VSB 3/4
ODESSA         CLOUDY    57  55  93 S7        30.13R FOG
SAN ANGELO     CLEAR     55  53  93 CALM      30.13R
SONORA         PTCLDY    54  54 100 CALM      30.17R
SWEETWATER     MOCLDY    60  58  92 S7        30.15F
WINK           MOCLDY    54  53  97 N5        30.10R
$$

TXZ055-058-074-075-080-082-231300-
FAR WEST/SOUTHWEST MOUNTAINS/TRANS PECOS

CITY           SKY/WX    TMP DP  RH WIND       PRES   REMARKS
ALPINE         CLEAR     57  55  95 SW5       30.25R
DRYDEN           N/A     63  60  90 CALM      30.11R
EL PASO        CLEAR     58  53  84 CALM      30.15R
FORT STOCKTON  CLEAR     59  57  93 SW9       30.12R
MARFA          CLOUDY    57  55  94 CALM      30.24R
PECOS          FOG       57  56  97 CALM      30.11R VSB 1/4
PRESIDIO       FAIR      61  58  90 N5        30.13R
$$

TXZ014-016-019-021>030-083-231300
TEXAS TECH WEST TEXAS MESONET/TEXAS PANHANDLE/NORTHERN SOUTH PLAINS

CITY           SKY/WX    TMP DP  RH WIND       PRES   REMARKS
ABERNATHY 5ENE   N/A     49  48  97 S5        30.14R
AMARILLO 9NNE    N/A     56  55  95 S5        30.10R
AMARILLO 7SSE    N/A     60  57  92 SW12      30.12S
AMHERST 1NE      N/A     52  52  99 S1        30.13S
BOOTLEG 11WNW    N/A     55  54  94 SW8       30.15R
CANADIAN 6E      N/A     58  58  98 S7        30.07R
CAPROCK CYN SP   N/A     54  54  98 SW5       30.11S
CHILDRESS 2NNE   N/A     56  56  98 S3        30.09S
CLARENDON 2WSW   N/A     58  56  92 S6        30.11R
CLAUDE 12SW      N/A     57  56  97 S5        30.11S
DIMMITT 2NE      N/A     58  56  94 SW9       30.12S
FLOYDADA 2NNE    N/A     51  51  98 S6        30.12S
FRIONA 2NE       N/A     59  56  91 SW8       30.13S
GOODLETT 3W      N/A     56  54  93 S1        30.09R
HART 3N          N/A     56  55  97 SW6       30.13R
HEREFORD 2NW     N/A     60  56  84 SW10      30.12S
MCLEAN 1E        N/A     55  54  97 S6        30.09R
MEMPHIS 1NE      N/A     57  56  97 S1        30.10R
MULESHOE 2SSW    N/A     58  56  94 SW6       30.13R
OLTON 6S         N/A     52  50  95 SW3       30.13R
PALO DURO SP     N/A     60  56  88 S6        30.13R
PAMPA 2E         N/A     57  56  98 S7        30.10R
PLAINVIEW 1S     N/A     53  53  99 SW3       30.12S
SILVERTON 7ESE   N/A     55  54  97 SW12      30.11S
TULIA 2ENE       N/A     56  55  98 SW6       30.12S
TURKEY 2WSW      N/A     53  53  98 S3        30.10S
UMBARGER 3NNE    N/A     60  57  92 SW12      30.12S
$$

TXZ033>036-039>041-045>048-231300
TEXAS TECH WEST TEXAS MESONET/SOUTH PLAINS

CITY           SKY/WX    TMP DP  RH WIND       PRES   REMARKS
AIKEN 3WSW       N/A     51  51 100 SW2       30.13S
ANDREWS 2NE      N/A     53  51  93 SE1       30.13R
ANTON 6SSW       N/A     50  49  97 S1        30.13R
BROWNFIELD 2S    N/A     53  52  98 S3        30.13R
DENVR CTY 7WNW   N/A     54  53  96 SW5       30.13S
GAIL 2ESE        N/A     56  54  94 S7        30.12S
LAMESA 2SE       N/A     50  49  98 SE3       30.13S
LEVELLAND 4S     N/A     51  49  95 S5        30.13S
LUBBOCK 3WNW     N/A     51  49  95 CALM      30.13R
MORTON 1ENE      N/A     50  50  99 W1        30.13R
ODONNELL 1N      N/A     53  52  94 S3        30.13R
PLAINS 3N        N/A     54  53  96 SW5       30.13S
RALLS 1SE        N/A     51  50  97 SW7       30.13S
REESE CENTER     N/A     51  50  97 S6        30.12S
SEMINOLE 2NNE    N/A     55  54  95 W3        30.14R
SLATON 2NE       N/A     49  48  97 S3        30.13R
SNYDER 3E        N/A     56  55  96 S6        30.12S
SUNDOWN 8SW      N/A     49  48  97 SW3       30.13R
TAHOKA 3NNE      N/A     54  54  98 S6        30.12S
WOLFFORTH 6SSW   N/A     52  52  99 SW6       30.13R
$$

TXZ031-032-036>038-042>044-231300-
TEXAS TECH WEST TEXAS MESONET/ROLLING PLAINS

CITY           SKY/WX    TMP DP  RH WIND       PRES   REMARKS
ASPERMONT 3NE    N/A     61  58  91 SW2       30.10R
FLUVANNA 3WNW    N/A     55  52  89 S6        30.13R
GRAHAM 5SSW      N/A     53  51  93 S6        30.12S
GUTHRIE 10WSW    N/A     55  54  94 S5        30.09S
HASKELL 1NW      N/A     60  57  87 S5        30.09S
KNOX CITY 3NW    N/A     57  54  90 E2        30.10R
LK A HENRY 1NW   N/A     56  55  95 S6        30.11S
NORTHFIELD 1S    N/A     53  53  99 S6        30.10S
ODELL 4ENE       N/A     56  55  97 SW1       30.10S
PADUCAH 10SW     N/A     54  53  97 S3        30.10S
POST 1NE         N/A     54  53  95 S2        30.12R
RRING SPRGS 3N   N/A     53  53  98 SW5       30.11R
SEYMOUR 3NW      N/A     61  57  89 CALM      30.10R
SPUR 1W          N/A     53  52  96 S2        30.10S
WEINERT 2NNE     N/A     56  55  97 S1        30.10S
WHITE RVR 6NE    N/A     53  53  97 SW3       30.11S
$$

TXZ052-054-060>062-072-078-127-140-154-169-231300-
TEXAS TECH WEST TEXAS MESONET/PERMIAN BASIN/
CONCHO VALLEY/BIG COUNTRY/EDWARDS PLATEAU

CITY           SKY/WX    TMP DP  RH WIND       PRES   REMARKS
COYANOSA 2N      N/A     55  54  98 S3        30.10S
JUNCTION 1SSW    N/A     56  55  99 N1        30.14R
MERTZON 3NNE     N/A     52  51  97 S2        30.14R
SAN ANGELO 7NW   N/A     53  51  91 NW2       30.13S
STRLNG CT 4WSW   N/A     55  54  97 S2        30.14S
ST LAWRNCE 5SW   N/A     60  59  94 S10       30.12F
SWEETWATR 11SW   N/A     60  56  87 S5        30.13F
WALL 1E          N/A     53  50  89 E3        30.13S
$$

TXZ055-058-074-075-080-082-231300-
TEXAS TECH WEST TEXAS MESONET/FAR WEST/SOUTHWEST MOUNTAINS/TRANS PECOS

CITY           SKY/WX    TMP DP  RH WIND       PRES   REMARKS
PRSMN GAP BBNP   N/A     61  59  95 NE3       30.14R
GUADLPE MTN NP   N/A     57  46  65 SW8       30.21S
$$